STARLINK-1372, 45543

Orbit data source: Space-Track

STARLINK-1372, 45543 is a payload satellite owned by SpaceX/Seattle (US) in LEO that was launched on Wed, 22 Apr 2020 UTC via an FALCON 9 launch vehicle from the Air Force Eastern Test Range (AFETR). Payload-class satellites include a variety of spacecraft equipped with specific instruments for various scientific and technological missions. These include communications satellites like Starlink; space stations such as the ISS; scientific satellites like the Hubble; Earth observation satellites from companies like Planet Labs, Umbra, and HawkEye 360; GPS; miniature CubeSats for education and research; and military/defense satellites.

Loading next visibility...
Identifier
45543, 2020-025N
Orbit
LEO
Country
Flag of USUS
Related business
Manufacturer
SpaceX/Seattle
Mission
Operational Commercial Communications
Bus & Motor
STARLINK, Unknown motor
Mass
260 kg wet, ~248 kg dry
Launch date (UTC)
2020-04-22 (6 years ago)
Launch vehicle
FALCON 9
Launch site
Air Force Eastern Test Range (AFETR)
Object type
Payload
Rocket body
Debris
Shape & HBR
Box + 1 Pan, 10.1 m
Radar Cross Section
13.562 m², Large (>1 m²)

Expand to show TLE details & history
Last TLE update: 13 hours ago

TLE from 13 hours ago
0 STARLINK-1372
1 45543U 20025N   26123.44749509  .00055517  00000-0  16202-2 0  9992
2 45543  53.1581 206.0373 0003108   3.7639 356.3387 15.34820745332661
Epoch: 2026-05-03T10:44Z
TLE epoch observation values (Epoch: 2026-05-03T10:44:23.575Z)
Latitude
-0°
Longitude
-176.41184°
Altitude
460.233 km
Speed
7.639 km/s
True Right ascension
13h 44m 08s
True Declination
0° 00' 00"
Sunlit
Object was in full shadow at epoch
Visualization orbit readout
Latitude
Unknown
Longitude
Unknown
Altitude
Unknown
Speed
Unknown
Apparent Right ascension
Unknown
Apparent Declination
Unknown
Sunlit
N/A
Visualization observer readout
Local Sidereal Time
07:27:04
Azimuth
Unknown
Elevation
Unknown
Doppler factor
Unknown
Orbital elements
Apogee altitude
463.836 km
Perigee altitude
459.584 km
Semi-major axis
6,839.847 km
Eccentricity
0.00031
Inclination
53.1581°
RAAN
206.0373°
Arg. of periapsis
3.7639°
True anomaly
356.33642°
Mean anomaly
356.3387°
Eccentric anomaly
356.33756°
Mean motion
3.83684 °/min
Orbital period
93.83 mins
BSTAR
0.0016202
Loading maneuver chart data...
Computing Atmospheric mass density...

Documentation

Showing up to 5 results
|